Location: Allos
(44.2333°N, 6.6333°E)
Time: 21:36:25
(UTC+00:00)

Cosmos 1821 Rocket - Pass Details

Date: 24 April 2021
Orbit: 946 x 1003 km, 82.9° (Epoch: 16 May)

Event Time Altitude Azimuth Distance (km) Brightness Sun altitude
Rises 00:44:49 0° 356° (N) 3,712 8.0 -30.5°
Reaches altitude 10° 00:47:28 10° 2° (N) 2,767 7.2 -30.3°
Maximum altitude 00:53:35 48° 76° (ENE) 1,285 4.7 -29.9°
Enters shadow 00:55:18 39° 118° (ESE) 1,457 4.8 -29.8°
